Location: Buch
(49.7331°N, 12.1098°E)
Time: 10:14:38
(UTC+00:00)

Meteor 2-6 Rocket - Pass Details

Date: 12 May 2021
Orbit: 807 x 913 km, 81.3° (Epoch: 13 June)

Event Time Altitude Azimuth Distance (km) Brightness Sun altitude
Exits shadow 20:02:26 - 171° (S) 2,603 6.3 -10.5°
Reaches altitude 10° 20:02:59 10° 169° (S) 2,398 6.1 -10.6°
Maximum altitude 20:08:13 52° 95° (E) 1,022 4.4 -11.2°
Drops below altitude 10° 20:13:35 10° 20° (NNE) 2,466 7.0 -11.8°
Sets 20:16:05 0° 16° (NNE) 3,421 7.8 -12.0°
